Preview of NWS' New Version of Forecast
This preview is not operational and should not be used for support decisions.

Regional Weather Roundup (RWR)

Issued by National Weather Service (NWS)

                            
000
ASUS44 KMEG 180800
RWRTN 
TENNESSEE HOURLY STATE WEATHER ROUNDUP
NATIONAL WEATHER SERVICE MEMPHIS TN
300 AM CDT MON MAR 18 2019

TNZ002-004-019-021-049-052-054-088>092-180900-
WEST TENNESSEE
  
CITY           SKY/WX    TMP DP  RH WIND       PRES   REMARKS
MEMPHIS INTL   FAIR      47  28  47 NE8       30.30S                  
NWS MEMPHIS      N/A     46 N/A N/A MISG        N/A                   
JACKSON        FAIR      42  27  55 E5        30.32R                  
DYERSBURG      CLOUDY    44  31  60 NE6       30.34R                  
$$

TNZ008-025-027-028-033-062-065-066-180900-
NORTH MIDDLE TENNESSEE
  
CITY           SKY/WX    TMP DP  RH WIND       PRES   REMARKS
NASHVILLE      FAIR      39  27  62 N7        30.32S WCI  34          
CLARKSVILLE    FAIR      35  27  72 CALM      30.33S                  
SMYRNA         FAIR      39  29  67 N7        30.33S WCI  34          
CROSSVILLE     FAIR      36  26  67 N5        30.24S WCI  32          
$$

TNZ061-075-076-078-094-096-097-180900-
SOUTH MIDDLE TENNESSEE
  
CITY           SKY/WX    TMP DP  RH WIND       PRES   REMARKS
FAYETTEVILLE   CLEAR     43  28  56 N9        30.27R                  
$$

TNZ017-018-042-046-047-180900-
NORTHEAST TENNESSEE
  
CITY           SKY/WX    TMP DP  RH WIND       PRES   REMARKS
TRI CITIES     FAIR      32  27  81 SE3       30.18S                  
$$

TNZ012-013-036-069-073-074-180900-
CENTRAL EAST TENNESSEE
  
CITY           SKY/WX    TMP DP  RH WIND       PRES   REMARKS
KNOXVILLE      FAIR      43  24  47 N6        30.23S                  
OAK RIDGE      FAIR      44  26  49 N7        30.25S                  
$$

TNZ083-085-099-180900-
SOUTHEAST TENNESSEE
  
CITY           SKY/WX    TMP DP  RH WIND       PRES   REMARKS
CHATTANOOGA    FAIR      45  25  45 NW8       30.25F                  
$$

SKY/WX REPORTED AS FAIR MEANS FEW OR NO CLOUDS BELOW
12 THOUSAND FEET.